Location: Andershausen
(51.8462°N, 9.8595°E)
Time: 01:42:39
(UTC+00:00)

UNK - Pass Details

Date: 18 November 2025
Orbit: 655 x 672 km, 98.4° (Epoch: 13 December)

Event Time Altitude Azimuth Distance (km) Brightness Sun altitude
Rises 16:58:05 0° 13° (NNE) 3,036 6.8 -14.0°
Reaches altitude 10° 17:00:20 10° 11° (NNE) 2,118 6.1 -14.3°
Maximum altitude 17:04:56 71° 289° (WNW) 715 4.0 -15.0°
Drops below altitude 10° 17:09:31 10° 205° (SSW) 2,100 6.8 -15.7°
Sets 17:11:44 0° 203° (SSW) 3,008 7.6 -16.0°
